Location: Newark
(48.1500°N, 2.9667°W)
Time: 23:27:56
(UTC+00:00)

S-56A Canister/Altair - All Passes

Search period start: 22 January 2020 00:00
Search period end: 01 February 2020 00:00
Orbit: 634 x 2498 km, 38.9° (Epoch: 22 January)

Date Brightness Start Highest point End Pass type
(mag) Time Alt. Az. Time Alt. Az. Time Alt. Az.
22 Jan - 00:56:27 10° WSW 00:59:58 23° S 01:03:42 10° SE night (unlit)
22 Jan - 03:02:08 10° SSW 03:02:49 10° SSW 03:03:31 10° SSW night (unlit)
22 Jan - 20:19:12 10° S 20:21:42 13° SSE 20:23:57 10° SE visible
22 Jan - 22:20:35 10° SW 22:24:39 24° S 22:28:17 10° ESE night (unlit)
23 Jan - 00:23:53 10° WSW 00:27:29 24° S 00:31:10 10° SE night (unlit)
23 Jan - 02:28:57 10° SW 02:30:17 11° SSW 02:31:39 10° S night (unlit)
23 Jan - 19:46:43 10° S 19:49:07 12° SSE 19:51:18 10° SE visible
23 Jan - 21:47:52 10° SW 21:52:09 24° S 21:55:51 10° ESE visible
23 Jan - 23:51:15 10° WSW 23:55:01 25° S 23:58:41 10° SE night (unlit)
24 Jan - 01:56:00 10° SW 01:57:46 12° SSW 01:59:36 10° S night (unlit)
24 Jan - 19:14:14 10° S 19:16:31 12° SSE 19:18:36 10° SE visible
24 Jan - 21:15:04 10° SW 21:19:39 24° S 21:23:26 10° ESE visible
24 Jan - 23:18:33 10° WSW 23:22:33 26° S 23:26:15 10° SE night (unlit)
25 Jan - 01:23:08 10° SW 01:25:15 13° SSW 01:27:27 10° S night (unlit)
25 Jan - 18:41:46 10° S 18:43:53 11° SSE 18:45:50 10° SE visible
25 Jan - 20:42:12 10° SW 20:47:06 24° SSE 20:51:02 10° ESE visible
25 Jan - 22:45:47 10° WSW 22:50:05 27° S 22:53:52 10° SE night (unlit)
26 Jan - 00:50:16 10° WSW 00:52:47 15° SSW 00:55:18 10° SSE night (unlit)
26 Jan - 18:09:23 10° SSE 18:11:14 11° SSE 18:12:57 10° SE visible
26 Jan - 20:09:17 10° SW 20:14:32 24° SSE 20:18:39 10° ESE visible
26 Jan - 22:12:56 10° WSW 22:17:35 29° S 22:21:31 10° SE visible
27 Jan - 00:17:24 10° WSW 00:20:18 16° SSW 00:23:08 10° SSE night (unlit)
27 Jan - 17:37:12 10° SSE 17:38:32 10° SSE 17:39:49 10° SE visible
27 Jan - 19:36:18 10° SW 19:41:56 24° SSE 19:46:17 10° ESE visible
27 Jan - 21:40:00 10° WSW 21:45:05 30° S 21:49:11 10° ESE visible
27 Jan - 23:44:31 10° WSW 23:47:50 19° SSW 23:50:57 10° SSE night (unlit)
28 Jan - 19:03:16 10° SSW 19:09:17 24° SSE 19:13:53 10° ESE visible
28 Jan - 21:06:59 10° WSW 21:12:33 32° S 21:16:53 10° ESE visible
28 Jan - 23:11:35 10° WSW 23:15:23 21° SSW 23:18:46 10° SSE night (unlit)
29 Jan - 18:30:12 10° SSW 18:36:37 24° SSE 18:41:28 10° ESE visible
29 Jan - 20:33:54 10° WSW 20:40:00 33° S 20:44:34 10° ESE visible
29 Jan - 22:38:36 10° WSW 22:42:54 24° SSW 22:46:35 10° SE night (unlit)
30 Jan - 17:57:06 10° SSW 18:03:53 23° SSE 18:09:02 10° ESE visible
30 Jan - 20:00:43 10° WSW 20:07:24 34° S 20:12:16 10° ESE visible
30 Jan - 22:05:33 10° WSW 22:10:26 27° SSW 22:14:24 10° SE visible
31 Jan - 17:23:59 10° SSW 17:31:07 23° SSE 17:36:33 10° ESE daylight
31 Jan - 19:27:29 10° SW 19:34:46 35° S 19:39:57 10° ESE visible
31 Jan - 21:32:25 10° WSW 21:37:56 30° SSW 21:42:12 10° SE visible
31 Jan - 23:38:56 10° SW 23:40:22 11° SW 23:41:44 10° SSW night (unlit)
